Date,TemperatureHighF,TemperatureAvgF,TemperatureLowF,DewpointHighF,DewpointAvgF,DewpointLowF,HumidityHigh,HumidityAvg,HumidityLow,PressureMaxIn,PressureMinIn,WindSpeedMaxMPH,WindSpeedAvgMPH,GustSpeedMaxMPH,PrecipitationSumIn
2013-1-1,24,17,11,19,14,9,94,88,80,30.49,30.30,14,2,14,0.00
2013-1-2,35,25,11,29,21,7,90,82,71,30.45,30.27,16,3,16,0.00
2013-1-3,29,24,16,24,19,13,91,81,65,30.58,30.44,13,3,13,0.00
2013-1-4,35,19,11,22,13,7,89,77,55,30.47,30.28,10,3,10,0.00
2013-1-5,42,26,10,29,18,7,88,73,58,30.43,30.21,19,4,19,0.01
2013-1-6,40,26,15,26,19,12,88,75,57,30.49,30.20,17,3,17,0.00
2013-1-7,39,30,20,28,24,19,95,79,60,30.20,30.07,19,2,19,0.00
2013-1-8,41,26,13,33,23,10,95,86,69,30.36,29.99,10,1,10,0.00
2013-1-9,45,33,22,32,26,19,91,78,59,30.56,30.35,14,2,14,0.00
2013-1-10,38,35,30,35,32,26,98,89,67,30.44,29.75,13,3,13,0.09
2013-1-11,40,34,20,40,33,15,99,95,76,29.95,29.47,27,4,27,0.02
2013-1-12,20,15,8,15,7,4,82,71,58,30.37,29.95,27,7,27,0.00
2013-1-13,21,12,5,9,4,0,82,72,50,30.55,30.36,15,4,15,0.00
2013-1-14,26,15,5,14,8,1,84,74,56,30.66,30.52,12,2,12,0.00
2013-1-15,30,21,13,19,14,9,89,74,57,30.53,30.20,17,4,17,0.00
2013-1-16,53,37,20,32,26,12,86,67,38,30.42,30.12,21,4,21,0.00
2013-1-17,48,36,27,34,28,23,89,76,54,30.59,30.36,11,3,11,0.00
2013-1-18,51,39,32,35,30,26,79,70,51,30.36,30.02,16,4,16,0.00
2013-1-19,55,41,33,30,27,25,81,60,32,30.20,30.00,21,5,24,0.00
2013-1-20,22,20,19,13,11,9,77,70,61,30.59,30.55,9,2,9,0.00
2013-1-21,22,14,12,15,9,6,84,79,71,30.62,30.50,11,2,11,0.00
2013-1-22,26,19,13,16,10,5,78,70,60,30.54,30.38,12,3,12,0.00
2013-1-23,34,23,12,22,15,4,86,72,56,30.66,30.30,18,3,18,0.00
2013-1-24,21,13,5,11,4,0,84,68,50,30.66,30.32,14,4,15,0.00
2013-1-25,53,33,16,31,22,10,85,66,33,30.43,30.30,10,2,10,0.00
2013-1-26,54,40,26,37,27,22,85,64,37,30.32,30.02,20,4,20,0.00
2013-1-27,43,39,35,41,38,35,99,97,80,30.02,29.76,15,2,15,0.07
2013-1-28,37,34,30,37,34,30,100,100,99,29.92,29.72,17,1,17,0.02
2013-1-29,35,33,29,32,30,26,99,90,72,29.90,29.76,20,5,20,0.00
2013-1-30,29,22,19,28,16,12,95,75,65,30.09,29.88,29,6,29,0.00
2013-1-31,21,14,9,14,3,-3,82,64,47,30.60,30.09,28,5,28,0.00